Погода в Октябрьском

Россия / Камчатский край     52°39′34″N   156°14′35″E
темп.,
°C
ветер,
м/с
пор.,
м/с
влажн.,
%
обл.,
%
осадки,
мм/ч
давл.,
гПа
погр.,
м
15 мая, сб
сб1500:00+3ссз58705 0.0 1021168
03:00+2ссз47770 0.0 1022130
06:00+2ссз45760 0.0 102378
09:00+5с46560 0.0 1023364
12:00+8сз55500 0.0 1023595
15:00+8сз66510 0.0 1023505
18:00+8сз54550 0.0 1023376
21:00+5сз45660 0.0 1024146
16 мая, вс
вс1600:00+4ссз117223 0.0 102311
03:00+4ююв2266100 0.0 102214
06:00+3ю4669100 0.0 1021100
09:00+6ю6755100 0.0 1021366
12:00+7ю6852100 0.0 1019507
15:00+6ююз101356100 0.0 1018431
18:00+5ю111767100 0.4 1016759
21:00+3ююв121884100 1.6 1016990
17 мая, пн
пн1700:00+3ююв132088100 5.1 10141015
03:00+2ююв121897100 2.2 1012901
06:00+2ююв121997100 5.0 1010900
09:00+2юв121897100 2.6 1008853
12:00+3ююв111595100 4.8 1007900
15:00+5ююв91279100 0.4 1006944
18:00+4ююв91280100 0.8 1005553
21:00+4ююв81187100 0.9 1004399
18 мая, вт
вт1800:00+3ююв6990100 1.1 1004306
03:00+3ю5894100 0.2 1003472
06:00+2зсз4592100 0.3 1004372
09:00+2з457793 0.0 1005585
12:00+3юз4474100 0.0 1006678
15:00+4зюз4483100 0.1 1007702
18:00+4з447788 0.1 1008651
21:00+2зюз3384100 0.0 1009360
19 мая, ср
ср1900:00+2ю3397100 0.1 1009234
03:00+2ю4492100 0.0 1009355
06:00+3ююв568899 0.0 1009442
09:00+4ююв678398 0.0 1009531
12:00+4ю7985100 0.1 1009440
15:00+8ю10127472 0.0 1008573
18:00+8ю10137391 0.0 1007436
21:00+5ююв9128196 0.0 1008372